This is the latest recevied weather packets stored in our database for station/object G3VHU. If no packets are shown the sender has not sent any weather packets the latest 1 day(s).
| Time | Temp. | Humidity | Pressure | Rain* | Wind** | Luminosity | Snow |
|---|---|---|---|---|---|---|---|
| 1778084336 | 9.44° C | 70% | 1016.7 hPa | 0 mm | - | - | - |
| 1778083734 | 8.89° C | 70% | 1016.7 hPa | 0 mm | - | - | - |
| 1778082234 | 9.44° C | 68% | 1016.8 hPa | 0 mm | - | - | - |
| 1778081934 | 9.44° C | 67% | 1016.8 hPa | 0 mm | - | - | - |
| 1778081328 | 9.44° C | 66% | 1016.9 hPa | 0 mm | - | - | - |
| 1778080729 | 8.89° C | 69% | 1016.8 hPa | 0 mm | - | - | - |
| 1778080428 | 8.89° C | 67% | 1016.8 hPa | 0 mm | - | - | - |
| 1778080128 | 8.89° C | 67% | 1016.9 hPa | 0 mm | - | - | - |
| 1778078628 | 8.89° C | 69% | 1016.9 hPa | 0 mm | - | - | - |
| 1778078028 | 8.89° C | 70% | 1017 hPa | 0 mm | - | - | - |
| 1778077427 | 8.89° C | 71% | 1017 hPa | 0 mm | - | - | - |
| 1778076228 | 9.44° C | 69% | 1016.9 hPa | 0 mm | - | - | - |
| 1778075324 | 8.89° C | 66% | 1016.9 hPa | 0 mm | - | - | - |
| 1778074722 | 9.44° C | 68% | 1017 hPa | 0 mm | - | - | - |
| 1778074420 | 9.44° C | 66% | 1016.9 hPa | 0 mm | - | - | - |
| 1778074117 | 8.89° C | 67% | 1016.9 hPa | 0 mm | - | - | - |
| 1778072315 | 8.89° C | 69% | 1016.7 hPa | 0 mm | - | - | - |
| 1778072016 | 8.89° C | 68% | 1016.9 hPa | 0 mm | - | - | - |
| 1778071711 | 9.44° C | 69% | 1016.8 hPa | 0 mm | - | - | - |
| 1778071411 | 9.44° C | 69% | 1016.7 hPa | 0 mm | - | - | - |
| 1778071111 | 9.44° C | 69% | 1016.8 hPa | 0 mm | - | - | - |
| 1778070812 | 9.44° C | 66% | 1016.8 hPa | 0 mm | - | - | - |
| 1778070212 | 9.44° C | 66% | 1016.9 hPa | 0 mm | - | - | - |
| 1778069911 | 8.89° C | 64% | 1017 hPa | 0 mm | - | - | - |
| 1778069612 | 9.44° C | 68% | 1016.9 hPa | 0 mm | - | - | - |
* Rain latest hour (hover to see other rain measurements)
** Current wind speed in m/s (hover to see current wind gust speed)